| time (UTC) | temp F | wind direction | speed knots | gust knots | rain 1hr in | rain 24hr in | rain mn in | humidity % | barometer mb |
| 20260503021258 | 60 | 0.0 | 0.0 | 0.00 | 0.00 | 0.00 | 92 | 1050.1 | |
| 20260503015722 | 61 | 0.0 | 0.0 | 0.00 | 0.00 | 0.00 | 92 | 1050.2 | |
| 20260503014146 | 61 | 0.0 | 0.0 | 0.00 | 0.00 | 0.00 | 91 | 1050.3 | |
| 20260503012610 | 62 | 0.0 | 0.0 | 0.00 | 0.00 | 0.00 | 90 | 1050.4 | |
| 20260503011034 | 63 | 0.0 | 0.0 | 0.00 | 0.00 | 0.00 | 89 | 1050.6 | |
| 20260503005458 | 62 | 0.0 | 0.0 | 0.00 | 0.00 | 0.00 | 90 | 1050.7 | |
| 20260503003922 | 63 | 0.0 | 0.0 | 0.00 | 0.00 | 0.00 | 89 | 1050.8 | |
| 20260503002346 | 62 | 0.0 | 0.0 | 0.00 | 0.00 | 0.00 | 90 | 1050.8 | |
| 20260503000810 | 62 | 0.0 | 0.0 | 0.00 | 0.00 | 0.00 | 89 | 1050.6 | |
| 20260502235234 | 62 | 0.0 | 0.0 | 0.00 | 0.00 | 0.00 | 87 | 1050.8 | |
| 20260502233658 | 63 | 0.0 | 0.0 | 0.00 | 0.00 | 0.00 | 86 | 1051.0 | |
| 20260502232122 | 63 | 0.0 | 0.0 | 0.00 | 0.00 | 0.00 | 86 | 1051.2 | |
| 20260502230547 | 63 | 0.0 | 0.0 | 0.00 | 0.00 | 0.00 | 87 | 1051.1 | |
| 20260502225011 | 63 | 0.0 | 0.0 | 0.00 | 0.00 | 0.00 | 87 | 1051.1 | |
| 20260502223435 | 63 | 0.0 | 0.0 | 0.00 | 0.00 | 0.00 | 87 | 1051.0 | |
| 20260502221859 | 63 | 0.0 | 0.0 | 0.00 | 0.00 | 0.00 | 87 | 1051.1 | |
| 20260502220323 | 63 | 0.0 | 0.0 | 0.00 | 0.00 | 0.00 | 87 | 1051.1 | |
| 20260502214747 | 63 | 0.0 | 0.0 | 0.00 | 0.00 | 0.00 | 87 | 1051.0 | |
| 20260502213211 | 63 | 0.0 | 0.0 | 0.00 | 0.00 | 0.00 | 87 | 1051.0 | |
| 20260502211635 | 64 | 0.0 | 0.0 | 0.00 | 0.00 | 0.00 | 87 | 1050.9 | |
| 20260502210059 | 64 | 0.0 | 0.0 | 0.00 | 0.00 | 0.00 | 85 | 1050.8 | |
| 20260502204523 | 64 | 0.0 | 0.0 | 0.00 | 0.00 | 0.00 | 85 | 1050.7 | |
| 20260502202947 | 65 | 0.0 | 0.0 | 0.00 | 0.00 | 0.00 | 83 | 1050.5 | |
| 20260502201411 | 66 | 0.0 | 0.0 | 0.00 | 0.00 | 0.00 | 82 | 1050.4 | |
| 20260502195835 | 65 | 0.0 | 0.0 | 0.00 | 0.00 | 0.00 | 82 | 1050.4 | |
| 20260502194259 | 66 | 0.0 | 0.0 | 0.00 | 0.00 | 0.00 | 80 | 1050.1 | |
| 20260502192723 | 66 | 0.0 | 0.0 | 0.00 | 0.00 | 0.00 | 79 | 1050.0 | |
| 20260502191147 | 68 | 0.0 | 0.0 | 0.00 | 0.00 | 0.00 | 77 | 1049.9 | |
| 20260502185611 | 69 | 0.0 | 0.0 | 0.00 | 0.00 | 0.00 | 76 | 1050.0 | |
| 20260502184035 | 73 | 0.0 | 0.0 | 0.00 | 0.00 | 0.00 | 77 | 1050.2 | |
| 20260502182459 | 69 | 0.0 | 0.0 | 0.00 | 0.00 | 0.00 | 78 | 1050.4 | |
| 20260502180923 | 68 | 0.0 | 0.0 | 0.00 | 0.00 | 0.00 | 77 | 1050.5 | |
| 20260502163547 | 71 | 0.0 | 0.0 | 0.00 | 0.00 | 0.00 | 76 | 1050.3 | |
| 20260502162011 | 71 | 0.0 | 0.0 | 0.00 | 0.00 | 0.00 | 76 | 1050.5 | |
| 20260502160436 | 71 | 0.0 | 0.0 | 0.00 | 0.00 | 0.00 | 77 | 1050.1 | |
| 20260502151748 | 69 | 0.0 | 0.0 | 0.00 | 0.00 | 0.00 | 86 | 1050.7 | |
| 20260502150212 | 67 | 0.0 | 0.0 | 0.00 | 0.00 | 0.00 | 84 | 1051.1 | |
| 20260502122612 | 77 | 0.0 | 0.0 | 0.00 | 0.00 | 0.00 | 51 | 1051.6 | |
| 20260502121036 | 84 | 0.0 | 0.0 | 0.00 | 0.00 | 0.00 | 51 | 1051.5 | |
| 20260502115500 | 83 | 0.0 | 0.0 | 0.00 | 0.00 | 0.00 | 57 | 1051.9 | |
| 20260502113924 | 80 | 0.0 | 0.0 | 0.00 | 0.00 | 0.00 | 66 | 1052.1 | |
| 20260502112348 | 72 | 0.0 | 0.0 | 0.00 | 0.00 | 0.00 | 74 | 1052.5 | |
| 20260502110812 | 68 | 0.0 | 0.0 | 0.00 | 0.00 | 0.00 | 74 | 1052.9 | |
| 20260502105236 | 68 | 0.0 | 0.0 | 0.00 | 0.00 | 0.00 | 67 | 1053.5 | |
| 20260502103700 | 68 | 0.0 | 0.0 | 0.00 | 0.00 | 0.00 | 61 | 1053.5 | |
| 20260502102124 | 73 | 0.0 | 0.0 | 0.00 | 0.00 | 0.00 | 57 | 1053.5 | |
| 20260502100548 | 74 | 0.0 | 0.0 | 0.00 | 0.00 | 0.00 | 56 | 1053.6 | |
| 20260502090324 | 72 | 0.0 | 0.0 | 0.00 | 0.00 | 0.00 | 62 | 1053.7 | |
| 20260502071413 | 70 | 0.0 | 0.0 | 0.00 | 0.00 | 0.00 | 59 | 1052.5 | |
| 20260502065837 | 70 | 0.0 | 0.0 | 0.00 | 0.00 | 0.00 | 60 | 1052.3 | |
| 20260502064301 | 69 | 0.0 | 0.0 | 0.00 | 0.00 | 0.00 | 60 | 1052.4 | |
| 20260502062725 | 69 | 0.0 | 0.0 | 0.00 | 0.00 | 0.00 | 61 | 1052.5 | |
| 20260502061149 | 68 | 0.0 | 0.0 | 0.00 | 0.00 | 0.00 | 61 | 1052.4 | |
| 20260502055613 | 68 | 0.0 | 0.0 | 0.00 | 0.00 | 0.00 | 60 | 1052.4 | |
| 20260502054037 | 68 | 0.0 | 0.0 | 0.00 | 0.00 | 0.00 | 60 | 1052.2 | |
| 20260502052501 | 68 | 0.0 | 0.0 | 0.00 | 0.00 | 0.00 | 60 | 1052.3 | |
| 20260502050925 | 68 | 0.0 | 0.0 | 0.00 | 0.00 | 0.00 | 60 | 1052.3 | |
| 20260502045349 | 68 | 0.0 | 0.0 | 0.00 | 0.00 | 0.00 | 60 | 1052.3 | |
| 20260502043813 | 68 | 0.0 | 0.0 | 0.00 | 0.00 | 0.00 | 59 | 1052.4 | |
| 20260502042237 | 68 | 0.0 | 0.0 | 0.00 | 0.00 | 0.00 | 59 | 1052.3 | |
| 20260502040701 | 68 | 0.0 | 0.0 | 0.00 | 0.00 | 0.00 | 59 | 1052.4 | |
| 20260502035125 | 68 | 0.0 | 0.0 | 0.00 | 0.00 | 0.00 | 59 | 1052.4 | |
| 20260502033549 | 68 | 0.0 | 0.0 | 0.00 | 0.00 | 0.00 | 59 | 1052.6 | |
| 20260502032013 | 68 | 0.0 | 0.0 | 0.00 | 0.00 | 0.00 | 59 | 1052.5 | |
| 20260502030437 | 69 | 0.0 | 0.0 | 0.00 | 0.00 | 0.00 | 58 | 1052.5 | |
| 20260502024901 | 69 | 0.0 | 0.0 | 0.00 | 0.00 | 0.00 | 58 | 1052.5 | |
| 20260502023325 | 69 | 0.0 | 0.0 | 0.00 | 0.00 | 0.00 | 57 | 1052.5 |